TimeEST,TemperatureF,Dew PointF,Humidity,Sea Level PressureIn,VisibilityMPH,Wind Direction,Wind SpeedMPH,Gust SpeedMPH,PrecipitationIn,Events,Conditions,WindDirDegrees,DateUTC
12:15 AM,45.1,37.6,75,30.22,10.0,NNE,5.8,-,N/A,,Overcast,30,2012-12-07 05:15:00
12:55 AM,45.1,38.3,77,30.21,10.0,NNE,6.9,-,N/A,,Overcast,20,2012-12-07 05:55:00
1:15 AM,45.0,38.3,77,30.20,10.0,NE,4.6,-,N/A,,Overcast,40,2012-12-07 06:15:00
1:35 AM,45.0,38.5,78,30.20,10.0,NE,6.9,-,N/A,,Overcast,40,2012-12-07 06:35:00
1:55 AM,45.0,38.7,79,30.20,10.0,NE,5.8,-,N/A,,Overcast,40,2012-12-07 06:55:00
2:15 AM,45.0,38.7,79,30.20,10.0,NNE,8.1,-,N/A,,Overcast,20,2012-12-07 07:15:00
2:35 AM,44.8,38.7,79,30.20,10.0,NNE,6.9,-,N/A,,Overcast,30,2012-12-07 07:35:00
2:55 AM,44.6,38.7,80,30.19,10.0,NNE,6.9,-,N/A,,Overcast,30,2012-12-07 07:55:00
3:15 AM,44.6,38.5,79,30.18,10.0,NNE,9.2,-,N/A,,Overcast,30,2012-12-07 08:15:00
3:35 AM,44.6,38.5,79,30.18,10.0,NE,6.9,-,N/A,,Overcast,40,2012-12-07 08:35:00
3:55 AM,44.4,38.5,80,30.18,10.0,NE,6.9,-,N/A,,Overcast,40,2012-12-07 08:55:00
4:15 AM,43.9,38.5,81,30.17,10.0,NE,5.8,-,N/A,,Overcast,40,2012-12-07 09:15:00
4:35 AM,43.2,38.3,83,30.17,10.0,NE,5.8,-,N/A,,Mostly Cloudy,40,2012-12-07 09:35:00
4:55 AM,42.4,37.9,84,30.17,10.0,NE,4.6,-,N/A,,Clear,40,2012-12-07 09:55:00
5:15 AM,41.9,38.3,87,30.17,10.0,NNE,3.5,-,N/A,,Scattered Clouds,30,2012-12-07 10:15:00
5:35 AM,40.8,37.8,89,30.17,10.0,NNE,5.8,-,N/A,,Mostly Cloudy,30,2012-12-07 10:35:00
5:55 AM,41.9,38.7,88,30.16,10.0,NE,4.6,-,N/A,,Overcast,40,2012-12-07 10:55:00
6:15 AM,42.4,38.8,87,30.17,10.0,North,4.6,-,N/A,,Overcast,10,2012-12-07 11:15:00
6:35 AM,42.1,38.7,88,30.17,10.0,NNE,4.6,-,N/A,,Overcast,20,2012-12-07 11:35:00
6:55 AM,42.4,39.2,88,30.18,10.0,North,3.5,-,N/A,,Overcast,10,2012-12-07 11:55:00
7:15 AM,43.3,39.4,86,30.18,10.0,NNE,4.6,-,N/A,,Overcast,30,2012-12-07 12:15:00
7:35 AM,43.9,39.9,86,30.17,10.0,NNE,5.8,-,N/A,,Overcast,20,2012-12-07 12:35:00
7:55 AM,44.4,40.1,85,30.17,10.0,NNE,6.9,-,N/A,,Overcast,30,2012-12-07 12:55:00
8:15 AM,45.3,40.6,84,30.18,10.0,NE,5.8,-,N/A,,Overcast,40,2012-12-07 13:15:00
8:35 AM,47.3,41.5,80,30.17,10.0,ENE,6.9,-,N/A,,Overcast,60,2012-12-07 13:35:00
8:55 AM,47.1,41.2,80,30.17,10.0,NE,6.9,-,N/A,,Overcast,50,2012-12-07 13:55:00
9:15 AM,47.8,41.9,80,30.16,10.0,ENE,8.1,-,N/A,,Overcast,60,2012-12-07 14:15:00
9:35 AM,49.1,42.8,79,30.16,10.0,ENE,5.8,-,N/A,,Overcast,70,2012-12-07 14:35:00
9:55 AM,50.2,43.2,77,30.16,10.0,East,5.8,-,N/A,,Overcast,100,2012-12-07 14:55:00
10:15 AM,51.8,43.9,74,30.16,10.0,East,5.8,-,N/A,,Overcast,80,2012-12-07 15:15:00
10:35 AM,52.9,44.8,74,30.16,10.0,ESE,3.5,-,N/A,,Overcast,110,2012-12-07 15:35:00
10:55 AM,53.1,45.3,75,30.14,10.0,ENE,4.6,-,N/A,Rain,Light Rain,70,2012-12-07 15:55:00
11:15 AM,53.6,45.9,75,30.13,10.0,NE,3.5,-,N/A,,Overcast,40,2012-12-07 16:15:00
11:35 AM,54.1,46.8,76,30.12,10.0,NE,3.5,-,N/A,Rain,Light Rain,50,2012-12-07 16:35:00
11:55 AM,55.9,47.1,72,30.10,10.0,NNE,3.5,-,N/A,,Overcast,30,2012-12-07 16:55:00
12:15 PM,57.0,47.7,71,30.09,10.0,NE,3.5,-,N/A,,Overcast,50,2012-12-07 17:15:00
12:35 PM,59.2,48.6,68,30.08,10.0,ENE,3.5,-,N/A,,Overcast,70,2012-12-07 17:35:00
12:55 PM,61.2,49.3,65,30.08,10.0,ENE,3.5,-,N/A,,Overcast,60,2012-12-07 17:55:00
1:15 PM,61.9,49.6,64,30.07,10.0,Calm,Calm,-,N/A,,Mostly Cloudy,0,2012-12-07 18:15:00
1:35 PM,63.1,50.7,64,30.06,10.0,East,5.8,-,N/A,,Scattered Clouds,100,2012-12-07 18:35:00
1:55 PM,63.7,51.3,64,30.05,10.0,East,4.6,-,N/A,,Mostly Cloudy,90,2012-12-07 18:55:00
2:15 PM,64.2,52.0,64,30.04,10.0,ENE,3.5,-,N/A,,Scattered Clouds,70,2012-12-07 19:15:00
2:35 PM,64.4,52.9,66,30.04,10.0,ESE,4.6,-,N/A,,Mostly Cloudy,110,2012-12-07 19:35:00
2:55 PM,64.4,53.6,68,30.03,10.0,East,4.6,-,N/A,,Overcast,100,2012-12-07 19:55:00
3:15 PM,64.0,54.1,70,30.03,10.0,ESE,4.6,-,N/A,,Overcast,120,2012-12-07 20:15:00
3:35 PM,65.1,54.3,68,30.03,10.0,Calm,Calm,-,N/A,,Overcast,0,2012-12-07 20:35:00
3:55 PM,64.4,54.5,70,30.03,10.0,East,5.8,-,N/A,,Overcast,90,2012-12-07 20:55:00
4:15 PM,64.0,54.9,72,30.02,10.0,Calm,Calm,-,N/A,,Scattered Clouds,0,2012-12-07 21:15:00
4:35 PM,63.9,55.4,74,30.02,10.0,Calm,Calm,-,N/A,,Mostly Cloudy,0,2012-12-07 21:35:00
4:55 PM,63.5,55.6,75,30.02,10.0,Calm,Calm,-,N/A,,Overcast,0,2012-12-07 21:55:00
5:15 PM,63.5,56.5,78,30.03,10.0,Calm,Calm,-,N/A,,Overcast,0,2012-12-07 22:15:00
5:35 PM,63.1,57.2,81,30.02,10.0,Calm,Calm,-,N/A,,Overcast,0,2012-12-07 22:35:00
5:55 PM,62.8,57.2,82,30.02,10.0,Calm,Calm,-,N/A,,Overcast,0,2012-12-07 22:55:00
6:15 PM,61.9,57.2,85,30.02,10.0,Calm,Calm,-,N/A,,Overcast,0,2012-12-07 23:15:00
6:35 PM,61.7,57.2,85,30.02,10.0,Calm,Calm,-,N/A,,Overcast,0,2012-12-07 23:35:00
6:55 PM,61.0,56.5,85,30.02,10.0,Calm,Calm,-,N/A,,Overcast,0,2012-12-07 23:55:00
7:15 PM,60.8,56.8,87,30.02,10.0,Calm,Calm,-,N/A,,Overcast,0,2012-12-08 00:15:00
7:35 PM,60.8,57.2,88,30.02,10.0,Calm,Calm,-,N/A,,Overcast,0,2012-12-08 00:35:00
7:55 PM,60.4,56.8,88,30.02,10.0,Calm,Calm,-,N/A,,Overcast,0,2012-12-08 00:55:00
8:15 PM,60.1,56.5,88,30.01,10.0,Calm,Calm,-,N/A,,Overcast,0,2012-12-08 01:15:00
8:35 PM,59.5,56.8,91,30.01,10.0,Calm,Calm,-,N/A,Rain,Light Rain,0,2012-12-08 01:35:00
8:55 PM,59.2,57.7,95,30.00,10.0,Calm,Calm,-,N/A,,Overcast,0,2012-12-08 01:55:00
9:15 PM,59.0,57.6,95,30.00,7.0,Calm,Calm,-,N/A,,Overcast,0,2012-12-08 02:15:00
9:35 PM,59.0,58.1,97,30.00,10.0,Calm,Calm,-,N/A,,Overcast,0,2012-12-08 02:35:00
10:15 PM,59.0,58.1,97,30.00,10.0,Calm,Calm,-,N/A,,Overcast,0,2012-12-08 03:15:00
10:35 PM,59.0,58.1,97,30.00,10.0,Calm,Calm,-,N/A,,Overcast,0,2012-12-08 03:35:00
10:55 PM,58.8,58.1,97,30.00,10.0,Calm,Calm,-,N/A,,Overcast,0,2012-12-08 03:55:00
11:15 PM,58.6,58.1,98,30.00,10.0,Calm,Calm,-,N/A,,Overcast,0,2012-12-08 04:15:00
11:35 PM,59.0,58.5,98,29.99,4.0,Calm,Calm,-,N/A,,Overcast,0,2012-12-08 04:35:00
11:55 PM,58.5,58.3,99,29.99,3.0,Calm,Calm,-,N/A,,Overcast,0,2012-12-08 04:55:00